Simultaneous Nadir Overpasses (SNOs) Predictions

Prediction of SNOs between AQUA and NOAA-19 Satellite Orbit:

Table of predicted SNOs for the next 14.0 days since TLE Epoch: 1/31/2015
Index Date (AQUA) Time (AQUA) Lat,Lon (AQUA) SZA (AQUA ) Date (NOAA-19) Time (NOAA-19) Lat,Lon (NOAA-19) SZA (NOAA-19 ) Distance(km) Time Diff (sec)
1 02/02/2015 01:02:17 79.48, 137.69 97.75 02/02/2015 01:01:12 79.47, 137.83 97.75 3.20 65
2 02/02/2015 01:51:38 -79.29, -53.37 82.56 02/02/2015 01:52:02 -79.28, -53.32 82.57 1.01 24
3 02/04/2015 06:35:59 -79.44,-125.45 82.97 02/04/2015 06:35:39 -79.45,-125.57 82.94 2.50 20
4 02/06/2015 11:20:17 -79.50, 163.10 83.54 02/06/2015 11:19:12 -79.49, 163.22 83.53 2.50 65
5 02/06/2015 12:09:40 79.35, -28.27 96.24 02/06/2015 12:10:15 79.36, -28.40 96.24 2.74 35
6 02/08/2015 16:53:58 79.43, -99.85 95.67 02/08/2015 16:53:49 79.43, -99.93 95.69 1.92 9
7 02/10/2015 21:38:16 79.52,-171.56 95.10 02/10/2015 21:37:23 79.52,-171.54 95.12 0.56 53
8 02/10/2015 22:27:38 -79.36, -2.81 85.15 02/10/2015 22:28:14 -79.37, -2.94 85.14 3.03 36




NCC Satellite Simultaneous Nadir Overpasses (SNOs) Prediction Service
